Showing default

NUSAT-49(K.VON NEUMANN), 60500

Orbit data source: Space-Track

NUSAT-49(K.VON NEUMANN), 60500 is a payload satellite owned by URUGUS S.A. (AR) in SSO that was launched on Fri, 16 Aug 2024 UTC via an FALCON 9 launch vehicle from the Air Force Western Test Range (AFWTR). Payload-class satellites include a variety of spacecraft equipped with specific instruments for various scientific and technological missions. These include communications satellites like Starlink; space stations such as the ISS; scientific satellites like the Hubble; Earth observation satellites from companies like Planet Labs, Umbra, and HawkEye 360; GPS; miniature CubeSats for education and research; and military/defense satellites.

Loading next visibility...
Identifier
60500, 2024-149AJ
Orbit
SSO
Country
Flag of ARAR / ARGN
Related business
Manufacturer
URUGUS S.A.
Mission
Operational Commercial Imaging
Bus & Motor
NEWSAT V, Unknown motor
Mass
41.5 kg wet, 38.5 kg dry
Launch date (UTC)
2024-08-16 (2 years ago)
Launch vehicle
FALCON 9
Launch site
Air Force Western Test Range (AFWTR)
Object type
Payload
Rocket body
Debris
Shape & HBR
Box, 1.0 m
Radar Cross Section
0.542 m², Medium (>0.1 m² and < 1m²)

Expand to show TLE details & history
Last TLE update: 23 hours ago

TLE from 23 hours ago
0 NUSAT-49(K.VON NEUMANN)
1 60500U 24149AJ  26175.19853164  .00007522  00000-0  26127-3 0  9996
2 60500  97.3781 256.4377 0000609 266.4946  93.6225 15.30042704103203
Epoch: 2026-06-24T04:45Z
TLE epoch observation values (Epoch: 2026-06-24T04:45:53.133Z)
Latitude
-0.00004°
Longitude
-87.39287°
Altitude
478.816 km
Speed
7.626 km/s
True Right ascension
17h 05m 45s
True Declination
0° 00' 00"
Sunlit
Object was in full shadow at epoch
Visualization orbit readout
Latitude
Unknown
Longitude
Unknown
Altitude
Unknown
Speed
Unknown
Apparent Right ascension
Unknown
Apparent Declination
Unknown
Sunlit
N/A
Visualization observer readout
Local Sidereal Time
15:27:39
Azimuth
Unknown
Elevation
Unknown
Doppler factor
Unknown
Orbital elements
Apogee altitude
473.053 km
Perigee altitude
472.219 km
Semi-major axis
6,850.773 km
Eccentricity
0.00006
Inclination
97.3781°
RAAN
256.4377°
Arg. of periapsis
266.4946°
True anomaly
93.62946°
Mean anomaly
93.6225°
Eccentric anomaly
93.62598°
Mean motion
3.82766 °/min
Orbital period
94.05 mins
BSTAR
0.00026127
Loading maneuver chart data...
Computing Atmospheric mass density...
Loading historical data...
Loading historical data...
Loading historical data...
Loading historical data...
Loading historical data...
Loading historical data...
Loading historical data...

Documentation

Showing up to 5 results
|